Regional Weather Roundup
Issued by NWS

Home | Current Version | Previous Version | Text Only | Print | Product List | Glossary On
Versions: 1 2 3 4 5 6 7 8 9 10 11 12 13 14 15 16 17 18 19 20 21 22 23 24 25 26 27
000
ASUS45 KBOI 180810
RWRID
WEATHER ROUNDUP FOR IDAHO
NATIONAL WEATHER SERVICE BOISE ID
200 AM MDT FRI APR 18 2014

NOTE: "FAIR" INDICATES FEW OR NO CLOUDS BELOW 12000 FEET
WITH NO SIGNIFICANT WEATHER AND/OR OBSTRUCTIONS TO VISIBILITY

IDZ012-014-180900-
SOUTHWEST IDAHO


CITY           SKY/WX    TMP DP  RH WIND       PRES   REMARKS
BOISE          CLOUDY    50  41  71 NW14G21   29.88R
CALDWELL       CLOUDY    50  36  57 NW13      29.91R
MOUNTAIN HOME  CLOUDY    51  50  99 NW16      29.86R
$$

IDZ016-017-180900-
SOUTHCENTRAL IDAHO


CITY           SKY/WX    TMP DP  RH WIND       PRES   REMARKS
BURLEY         MOCLDY    51  44  77 W21G29    29.82R
JEROME         CLOUDY    49  43  80 SW20      29.85R
TWIN FALLS     CLOUDY    50  42  74 SW17G24   29.86R
$$

IDZ019>023-180900-
SOUTHEAST IDAHO


CITY           SKY/WX    TMP DP  RH WIND       PRES   REMARKS
IDAHO FALLS    CLOUDY    55  34  45 S14       29.81R
POCATELLO      CLOUDY    60  33  36 S16G24    29.81F
REXBURG        CLOUDY    54  26  34 S14G21    29.81R
$$

IDZ006-010-011-018-031-032-180900-
CENTRAL IDAHO MOUNTAINS


CITY           SKY/WX    TMP DP  RH WIND       PRES   REMARKS
MCCALL         CLOUDY    40  37  89 SW3       29.84R
HAILEY         CLOUDY    52  32  46 W5        29.85R
STANLEY          N/A     37  36  96 S3        29.85S
SALMON         CLOUDY    50  45  81 SE5       29.72R
CHALLIS        CLOUDY    50  40  68 W6        29.78R
$$

IDZ002-004-006-007-026-180900-
NORTHERN IDAHO


CITY           SKY/WX    TMP DP  RH WIND       PRES   REMARKS
LEWISTON       LGT RAIN  49  42  77 SW5       29.83R
LOWELL           N/A     48  47  96 CALM      29.87R
COEUR D`ALENE  CLOUDY    46  41  81 SW12      29.75S
MULLAN PASS    SNOW      31  31 100 SW6       29.74S VSB 1/2 WCI  25
$$



USA.gov is the U.S. government's official web portal to all federal, state and local government web resources and services.